Location: Unspecified
(37.6100°N, 2.7800°W)
Time: 12:38:56
(UTC+00:00)

Tiangong 2 - Visible Passes

Search period start: 18 December 2018 00:00
Search period end: 28 December 2018 00:00
Orbit: 383 x 391 km, 42.8° (Epoch: 18 December)

Date Brightness Start Highest point End Pass type
(mag) Time Alt. Az. Time Alt. Az. Time Alt. Az.
18 Dec 3.4 17:51:05 10° S 17:52:43 13° SE 17:54:06 11° ESE visible
18 Dec 4.4 19:25:59 10° WSW 19:26:23 13° WSW 19:26:23 13° WSW visible
19 Dec 1.5 18:27:21 10° SW 18:30:23 46° SSE 18:30:30 46° SE visible
20 Dec 2.6 17:29:02 10° SSW 17:31:43 25° SE 17:34:24 10° E visible
20 Dec 3.2 19:05:14 10° W 19:06:51 26° W 19:06:51 26° W visible
21 Dec 1.0 18:06:22 10° WSW 18:09:31 87° SSE 18:10:52 32° ENE visible
22 Dec 2.2 18:44:36 10° W 18:47:06 36° NW 18:47:06 36° NW visible
23 Dec 1.4 17:45:35 10° W 17:48:42 56° NNW 17:51:03 16° ENE visible
23 Dec 4.3 19:22:59 10° WNW 19:23:19 12° WNW 19:23:19 12° WNW visible
24 Dec 2.1 18:23:58 10° WNW 18:26:52 32° N 18:27:15 31° N visible
25 Dec 1.9 17:24:54 10° W 17:27:55 39° NNW 17:30:56 10° ENE visible
25 Dec 3.5 19:02:15 10° WNW 19:03:27 19° NW 19:03:27 19° NW visible
26 Dec 2.2 18:03:17 10° WNW 18:06:09 30° N 18:07:24 22° NE visible
27 Dec 2.3 18:41:22 10° WNW 18:43:40 32° NNW 18:43:40 32° NNW visible
